Retour au catalogue

TITAN 3C TRANSTAGE DEB

ActifHEO
NORAD 13906·DEBRIS·🇺🇸 United States

Lancé Dec 21, 1965 depuis Cape Canaveral Space Force Station

Loading…

Prochains Passages (prochaines 24 heures)

TLE

FraisSource: Space-Track

Époque: Sep 14, 2026, 02:30 UTC

1 13906U 65108U   26257.10439317  .00000093  00000-0  15134-2 0  9997
2 13906  26.2077 223.3674 6741088 296.9724 188.0290  2.78188720345851

Suivez TITAN 3C TRANSTAGE DEB en temps réel avec AllMySat

Download on the App Store